This demonstration page uses our WeatherBlox Daily Observations layout. Learn more.

39.29038, -76.61219

Hourly Observations for April 17, 2019

Temp ( °F °C ) Dew Point ( °F °C ) Humidity (%) Winds ( mph kmh ) Pressure ( in mb ) Visibility ( mi km ) Precip ( " mm )
12:54 am 00:54 undefined 58 14.4 39 3.9 50 50 undefined N/A 30 1016 N/A 0 0
1:54 am 01:54 undefined 57 13.9 40 4.4 53 53 undefined N/A 29.99 1016 N/A 0 0
2:54 am 02:54 undefined 56 13.3 38 3.3 51 51 undefined N/A 29.98 1015 N/A 0 0
3:54 am 03:54 undefined 56 13.3 42 5.6 60 60 undefined N/A 30 1016 N/A 0 0
4:54 am 04:54 undefined 56 13.3 46 7.8 70 70 undefined N/A 30.03 1017 N/A 0 0
5:54 am 05:54 undefined 55 12.8 40 4.4 57 57 undefined N/A 30.05 1018 N/A 0 0
6:54 am 06:54 undefined 55 12.8 40 4.4 57 57 undefined N/A 30.08 1019 N/A 0 0
7:54 am 07:54 undefined 56 13.3 40 4.4 55 55 undefined N/A 30.09 1019 N/A 0 0
8:54 am 08:54 undefined 56 13.3 41 5 57 57 undefined N/A 30.11 1020 N/A 0 0
9:54 am 09:54 undefined 58 14.4 42 5.6 56 56 undefined N/A 30.12 1020 N/A 0 0
10:54 am 10:54 undefined 58 14.4 42 5.6 56 56 undefined N/A 30.14 1021 N/A 0 0
11:54 am 11:54 undefined 61 16.1 44 6.7 54 54 undefined N/A 30.13 1020 N/A 0 0
12:54 pm 12:54 undefined 61 16.1 44 6.7 54 54 undefined N/A 30.13 1020 N/A 0 0
1:54 pm 13:54 undefined 63 17.2 45 7.2 52 52 undefined N/A 30.13 1020 N/A 0 0
2:54 pm 14:54 undefined 62 16.7 45 7.2 54 54 undefined N/A 30.13 1020 N/A 0 0
3:54 pm 15:54 undefined 63 17.2 43 6.1 48 48 undefined N/A 30.11 1020 N/A 0 0
4:54 pm 16:54 undefined 64 17.8 41 5 43 43 undefined N/A 30.1 1019 N/A 0 0
5:54 pm 17:54 undefined 62 16.7 41 5 46 46 undefined N/A 30.1 1019 N/A 0 0
6:54 pm 18:54 undefined 61 16.1 42 5.6 50 50 undefined N/A 30.09 1019 N/A 0 0
7:54 pm 19:54 undefined 58 14.4 41 5 53 53 undefined N/A 30.11 1020 N/A 0 0
8:54 pm 20:54 undefined 57 13.9 42 5.6 58 58 undefined N/A 30.12 1020 N/A 0 0
9:54 pm 21:54 undefined 56 13.3 44 6.7 65 65 undefined N/A 30.14 1021 N/A 0 0
10:54 pm 22:54 undefined 56 13.3 44 6.7 65 65 undefined N/A 30.14 1021 N/A 0 0
11:54 pm 23:54 undefined 55 12.8 44 6.7 67 67 undefined N/A 30.13 1020 N/A 0 0

Powered by AerisWeather